Temperature
29 29 29 29 29 29 29 29 29 29 29 29 28 28 26 26 25 24 24 23 22 22 21 21 20 20 20 20 19 19 19 19 19 19 18 18 18 18 18 18 18 18 18 17
27 28 28 28 29 29 29 29 29 29 28 29 27 27 26 25 24 24 23 22 22 21 21 20 20 20 20 20 19 19 19 19 19 19 18 18 18 18 18 18 18 17 17 17
27 28 27 27 28 28 28 28 28 28 28 28 27 26 25 25 24 23 23 22 22 21 21 20 20 20 20 19 19 19 19 19 19 18 18 18 18 18 18 17 17 17 17 17
27 26 25 28 28 28 28 28 28 28 27 27 26 25 24 24 23 23 22 22 21 21 20 20 20 20 20 19 19 19 19 18 19 18 18 18 18 17 17 17 17 17 17 17
26 26 27 27 27 27 27 27 27 27 26 26 25 25 25 23 22 22 22 21 21 21 20 20 20 19 19 19 19 19 18 18 18 18 18 18 18 17 17 17 17 17 16 17
25 25 26 27 27 26 26 26 26 26 25 25 25 26 26 23 21 21 20 20 20 20 20 19 19 19 19 19 19 19 18 18 18 18 18 17 17 17 17 16 16 16 16 16
24 25 26 25 25 25 25 25 24 24 24 24 24 24 22 21 20 20 19 19 19 19 19 19 19 19 19 19 19 18 18 18 18 18 18 17 17 17 16 16 16 16 15 15
24 24 25 24 24 24 24 22 22 22 22 22 22 21 21 20 19 19 18 18 18 19 19 19 19 19 18 18 18 18 18 18 18 17 17 17 17 16 16 16 15 15 15 15
24 24 22 22 22 21 21 21 21 21 21 21 20 20 20 19 19 18 18 18 18 18 18 18 18 18 18 18 18 17 17 17 17 17 16 16 16 16 15 15 15 15 15 15
22 23 22 21 20 20 20 20 20 20 20 20 20 20 19 19 18 17 17 17 17 17 17 17 17 17 18 17 17 17 17 17 17 16 16 16 15 15 15 15 15 15 15 15
21 22 21 20 19 19 19 19 19 19 19 19 19 19 18 18 17 17 17 17 17 17 17 17 17 17 17 17 16 16 16 16 16 16 16 15 15 15 14 14 14 14 14 14
21 21 20 20 19 18 18 18 18 18 18 18 18 18 18 17 17 16 16 16 16 16 16 16 16 16 16 16 16 16 16 15 15 15 15 15 15 14 14 14 14 14 14 13
18 18 18 18 18 17 17 17 17 17 17 17 17 17 17 16 16 16 16 16 16 16 16 16 16 16 15 15 15 15 15 15 15 15 14 14 14 14 14 13 13 13 13 13
16 17 17 17 17 17 17 16 16 16 16 16 16 16 16 16 16 15 15 15 15 15 15 15 15 15 15 15 15 14 14 14 14 14 14 14 14 14 13 13 13 13 13 12
16 16 17 17 16 16 16 16 16 16 16 16 16 16 15 15 15 15 15 15 15 15 15 15 15 15 14 14 14 14 14 14 14 14 14 13 13 13 13 13 13 13 12 12
15 16 16 16 16 16 16 16 16 16 16 15 15 15 15 15 14 14 14 14 14 14 14 14 14 14 14 14 13 13 13 14 13 13 13 13 13 13 13 13 13 12 12 12
15 15 15 15 15 15 15 15 15 15 15 15 15 14 14 14 14 14 14 14 13 13 13 13 13 14 13 13 13 13 13 13 13 13 13 13 13 13 13 13 12 12 12 12
15 15 15 15 15 15 15 14 14 14 14 14 14 14 14 14 13 13 13 13 13 13 13 13 13 13 13 13 13 13 13 13 13 13 13 12 12 12 12 12 12 12 11 11
14 14 14 14 14 14 14 14 14 13 13 13 13 13 13 13 13 13 13 12 12 12 12 13 13 13 13 12 12 12 12 13 12 12 12 12 12 12 12 12 11 11 11 11
14 14 14 14 13 13 13 13 13 13 13 13 13 13 13 12 12 12 12 12 12 12 12 12 12 12 12 12 12 12 12 12 12 12 12 12 12 12 12 11 11 11 11 11
13 13 13 13 13 13 13 13 13 12 12 12 12 12 12 12 12 12 12 12 12 12 12 12 12 12 12 12 12 12 12 12 12 11 11 11 11 11 11 11 11 11 10 10
13 13 13 13 13 12 12 12 12 12 12 12 12 12 12 12 12 12 11 11 11 12 12 12 12 12 12 12 12 12 12 12 11 11 11 11 11 11 11 11 11 11 10 10
12 12 12 12 12 12 12 12 12 11 11 11 11 11 11 11 12 12 11 11 11 11 11 11 11 11 11 11 11 11 11 11 11 11 11 11 11 11 11 10 10 10 10 10
11 11 11 11 11 11 11 11 11 11 11 11 11 11 11 11 11 11 11 11 11 11 11 11 11 11 11 11 11 11 11 10 10 10 10 10 10 10 10 10 10 10 9 9
11 11 11 11 11 11 11 11 11 11 11 11 11 11 11 11 11 11 11 10 10 10 10 10 10 10 10 10 10 10 10 10 10 10 10 10 10 10 9 9 9 9 9 9
10 11 11 11 11 11 11 11 12 11 11 11 11 11 11 11 11 10 10 10 10 10 10 10 10 10 10 10 10 10 10 10 10 10 10 9 9 9 9 9 8 8 8 8
10 11 10 11 11 11 11 11 11 11 11 11 11 11 10 10 10 10 10 10 10 10 10 10 10 10 10 10 10 9 9 9 9 9 9 9 9 9 9 8 8 8 8 8
Wind_Speed
9 7 8 10 10 10 11 11 10 8 7 5 4 2 1 1 0 1 2 4 5 5 5 5 5 5 5 5 5 5 5 5 5 5 4 4 4 4 4 4 4 4 4 4
11 10 11 12 12 12 11 11 10 9 7 4 3 2 2 1 1 1 1 2 4 5 6 6 5 5 5 5 5 5 5 5 5 4 4 4 4 4 4 4 4 4 4 4
11 9 11 14 11 11 11 9 10 10 6 4 4 3 3 2 2 2 2 2 3 4 4 5 5 5 5 5 5 5 5 5 5 5 5 4 4 4 4 4 4 5 4 4
8 8 13 6 3 7 8 8 8 7 6 5 4 4 3 2 3 3 3 2 3 3 4 4 5 5 4 5 5 5 5 5 5 5 5 5 5 5 4 4 4 4 4 4
8 12 12 7 5 6 8 8 5 5 5 5 4 5 3 0 1 2 2 2 2 3 4 3 4 4 4 5 5 5 5 5 5 5 5 5 5 5 5 4 4 4 3 3
9 11 12 4 2 3 7 9 3 4 5 5 4 6 2 1 2 1 1 1 2 3 3 3 3 3 4 5 5 5 5 5 5 5 5 5 6 6 5 5 5 4 3 3
13 12 8 1 0 4 8 3 1 3 4 5 5 4 3 3 2 2 1 1 2 3 3 3 3 3 5 5 5 5 4 5 5 5 5 5 5 5 5 5 4 4 3 3
10 12 7 3 1 3 3 4 3 3 4 4 4 4 3 3 2 2 2 2 2 3 3 3 3 4 4 5 4 4 4 4 4 5 5 4 4 4 5 5 5 5 4 4
6 3 2 2 1 2 3 4 4 4 5 5 5 4 4 3 3 2 2 2 2 2 2 3 3 3 4 4 4 4 4 4 4 4 3 3 4 4 5 5 5 4 4 4
5 5 3 2 2 3 4 4 5 5 5 5 5 4 4 3 3 2 2 2 2 2 2 2 2 2 2 2 3 4 4 4 4 4 4 4 3 4 4 4 4 4 4 4
8 6 5 5 4 5 5 5 5 5 6 5 5 5 4 4 4 3 2 2 2 2 2 2 2 2 2 2 3 4 4 3 4 4 3 3 3 1 3 2 2 3 4 4
7 5 6 6 5 6 6 6 5 5 6 6 5 5 5 4 3 3 3 2 2 3 3 2 2 2 2 2 3 3 4 4 3 3 3 3 2 1 4 2 4 2 2 3
8 8 8 8 7 6 6 6 5 5 5 6 5 5 4 3 3 3 4 3 3 3 3 3 2 2 2 2 2 3 3 3 3 3 2 2 2 2 1 1 2 2 2 2
8 8 8 7 7 6 6 5 5 5 5 5 4 4 3 3 2 3 4 4 3 3 2 2 2 2 2 2 2 3 3 3 3 2 2 2 2 2 2 2 1 1 1 2
8 8 8 7 6 6 5 5 5 5 4 4 4 4 4 3 3 3 3 3 2 2 2 2 1 1 1 2 2 3 3 3 3 3 3 3 3 3 2 2 2 1 1 1
7 7 7 6 6 5 5 5 5 5 4 4 4 4 4 4 3 3 3 2 2 2 2 2 1 1 1 1 2 2 2 2 2 3 3 3 3 3 2 2 2 2 2 2
7 7 6 7 7 6 5 5 5 5 4 4 4 4 4 3 3 3 3 2 2 2 2 1 1 1 1 1 2 2 2 2 3 3 3 2 3 3 3 2 2 2 2 1
7 7 7 6 6 5 5 4 4 5 4 4 4 3 3 2 3 3 3 2 2 2 2 1 1 0 1 2 1 1 1 2 3 3 2 2 3 3 3 2 3 3 2 2
5 5 5 5 5 5 4 4 4 4 4 4 4 3 3 3 2 2 2 2 2 2 2 1 0 1 1 1 2 2 2 2 2 2 2 2 3 3 3 3 3 2 2 2
4 4 3 3 3 3 3 3 3 3 3 3 3 3 2 2 2 1 1 2 2 2 1 1 1 2 2 1 2 2 2 2 2 2 2 2 2 3 3 3 2 2 2 2
3 3 3 2 2 2 2 3 2 3 3 3 3 2 2 2 1 1 2 2 1 1 1 2 2 2 1 1 3 2 2 2 2 2 2 2 2 2 3 3 2 2 2 2
3 3 3 2 2 2 2 2 2 3 3 3 3 2 1 2 2 1 1 1 1 0 1 2 1 1 1 1 2 2 2 2 1 1 1 2 2 2 2 2 2 2 2 2
3 3 2 2 2 2 2 2 2 2 3 3 2 2 2 2 2 1 1 1 0 0 1 0 2 3 1 2 1 1 1 1 1 1 2 2 2 2 2 2 2 2 2 2
2 2 2 2 1 2 3 2 2 2 2 2 1 1 1 1 1 0 1 3 2 1 1 3 4 2 2 1 1 1 1 1 1 1 1 1 1 1 1 1 1 1 2 2
2 2 2 2 3 2 2 2 2 2 1 1 0 0 0 0 0 1 2 2 2 1 1 3 4 2 1 1 1 1 1 1 0 1 1 1 1 1 1 1 1 2 2 2
3 2 2 3 3 2 2 2 2 1 1 1 1 0 1 0 1 2 2 2 2 1 1 2 2 2 1 1 1 0 1 1 1 1 1 1 2 2 1 1 2 2 2 2
3 3 2 3 3 2 2 2 2 1 1 1 1 1 1 1 1 1 1 1 2 1 1 1 1 1 1 1 1 1 2 1 2 2 2 2 2 2 2 2 2 2 2 2
Wind_Direction
256 260 251 248 245 239 243 258 264 265 265 269 282 295 312 304 93 118 135 162 173 173 171 175 178 183 189 192 195 196 195 201 203 203 203 208 210 214 216 217 221 224 234 240
243 241 248 251 245 242 242 247 251 257 262 266 263 265 253 243 222 174 168 170 175 177 177 180 185 193 189 192 195 194 200 208 208 204 204 207 209 211 211 213 222 225 228 237
246 237 248 245 238 236 236 242 248 252 261 254 258 272 272 257 241 236 231 203 190 188 186 187 189 192 193 192 195 194 202 209 208 208 207 209 210 206 212 215 217 221 225 229
248 237 243 244 225 236 239 244 251 255 254 252 263 266 272 278 270 254 250 243 213 203 196 193 190 185 190 190 193 198 203 207 206 205 204 203 204 206 211 214 217 217 220 224
243 240 246 232 216 230 238 243 244 248 246 252 269 252 216 216 282 276 279 269 225 205 197 188 186 183 187 191 194 200 204 207 208 205 206 207 209 209 210 211 218 221 220 223
238 248 250 226 159 236 242 234 224 245 251 260 263 253 240 10 325 296 291 293 234 206 195 188 190 191 198 203 203 206 207 210 210 208 209 214 215 213 211 209 215 225 229 231
239 245 247 65 151 216 232 242 29 281 272 264 257 281 310 318 305 294 289 271 227 209 210 206 202 201 208 213 218 217 212 214 215 213 213 213 211 211 212 214 216 227 237 241
235 243 236 80 182 245 328 2 330 310 297 288 287 283 280 284 288 289 290 261 233 220 221 216 207 205 212 219 224 219 213 215 217 219 224 207 198 207 213 218 220 222 228 241
244 251 70 67 18 360 341 326 318 309 301 293 284 280 277 275 284 289 289 268 242 235 222 215 217 217 218 215 209 208 207 210 215 213 212 208 204 208 211 216 232 236 236 243
252 236 257 272 283 309 318 316 313 307 300 296 288 284 284 284 282 281 289 280 254 247 247 236 226 227 228 210 201 202 202 202 205 205 205 205 215 224 230 235 241 248 252 252
247 256 261 248 283 302 307 305 306 307 299 297 290 288 285 283 278 275 275 276 259 250 256 251 247 239 231 200 196 198 194 200 210 211 205 202 215 264 258 267 285 265 262 261
260 264 268 268 281 292 292 294 300 300 295 293 291 293 289 280 275 277 273 271 264 263 270 269 257 249 237 199 195 198 195 203 217 220 209 210 201 184 50 41 54 36 332 298
274 282 283 279 279 280 278 284 295 296 290 288 294 293 285 285 281 277 273 269 268 272 278 275 262 255 243 199 192 206 212 210 217 217 209 215 215 210 211 116 84 63 52 52
270 268 265 267 275 279 274 275 279 280 282 285 292 293 284 285 291 280 276 276 276 276 277 271 262 253 230 195 188 195 206 191 203 206 212 214 218 224 225 227 225 242 138 143
265 263 264 271 272 272 267 260 261 268 278 287 291 292 283 280 285 284 284 284 280 271 267 254 249 268 246 202 200 207 213 207 209 212 212 217 224 230 225 222 226 231 232 167
266 263 260 262 265 266 264 259 258 265 275 285 294 299 293 284 281 281 285 281 277 280 282 267 260 285 266 216 207 208 208 175 213 222 219 215 224 230 230 230 231 234 237 241
257 258 260 263 262 259 259 261 260 264 274 284 290 292 283 275 278 284 284 281 288 289 283 276 303 351 301 231 224 224 214 179 182 217 225 228 233 236 234 236 239 239 242 221
259 261 263 264 265 263 261 262 266 268 276 290 290 285 278 272 278 281 279 275 272 283 302 331 4 346 267 254 249 248 212 200 218 222 218 227 236 241 238 233 236 242 243 197
264 265 265 264 262 258 257 257 266 276 284 285 278 277 271 266 264 267 270 266 264 268 292 322 161 223 237 257 264 236 222 213 219 220 217 206 230 237 233 235 238 241 250 236
266 267 268 263 256 254 257 259 263 272 278 278 276 272 269 270 257 246 258 261 275 296 296 312 251 239 233 234 252 229 216 215 217 217 222 225 229 236 242 242 236 234 240 238
284 283 273 253 240 254 256 255 259 270 280 282 275 271 266 260 246 248 260 271 302 332 272 224 231 242 228 223 235 225 206 210 217 219 226 228 235 240 240 236 232 232 234 240
295 289 277 257 242 250 254 245 246 258 269 275 270 266 264 258 250 254 270 289 312 41 230 226 231 51 350 261 223 215 205 204 217 228 239 239 235 234 239 245 241 233 233 239
288 275 267 265 254 248 244 239 243 252 259 263 267 265 261 273 277 270 270 353 39 30 240 165 65 67 310 222 189 188 186 194 217 233 230 236 244 249 249 251 255 249 240 238
274 254 251 250 243 233 234 242 252 251 252 255 258 270 265 257 270 278 58 95 89 97 77 80 94 104 250 174 153 164 165 179 206 235 242 242 254 263 265 266 275 281 271 259
261 244 234 237 236 235 239 236 222 210 225 244 122 106 249 170 115 65 89 110 115 142 100 110 135 175 204 99 118 140 192 204 227 260 240 234 251 259 269 285 298 297 290 278
252 248 249 257 263 259 252 241 232 220 194 161 124 65 23 61 123 124 130 140 133 125 119 124 134 168 165 139 157 224 251 189 186 232 240 248 255 259 272 290 289 286 286 284
244 244 247 253 251 251 246 229 219 200 193 190 162 165 179 172 150 137 139 136 129 124 120 137 153 194 211 201 237 263 262 250 242 246 238 239 248 253 254 261 267 267 275 278
Height
1487 1486 1486 1488 1489 1489 1491 1489 1490 1488 1488 1489 1490 1492 1496 1498 1499 1500 1501 1502 1503 1504 1505 1507 1508 1510 1511 1512 1513 1514 1515 1515 1516 1516 1516 1516 1517 1517 1517 1517 1518 1518 1518 1517
1491 1487 1487 1488 1486 1486 1487 1487 1487 1487 1488 1487 1491 1493 1496 1497 1498 1499 1500 1501 1502 1503 1504 1504 1506 1507 1508 1509 1510 1511 1512 1513 1513 1513 1513 1514 1514 1514 1514 1514 1515 1515 1515 1514
1491 1487 1488 1490 1483 1484 1484 1484 1485 1487 1487 1488 1490 1492 1494 1496 1497 1497 1498 1499 1500 1501 1501 1502 1503 1504 1505 1506 1507 1508 1509 1510 1510 1510 1510 1510 1511 1511 1511 1512 1512 1512 1512 1511
1489 1494 1503 1482 1478 1480 1482 1483 1483 1484 1486 1488 1491 1493 1494 1495 1495 1496 1497 1497 1498 1498 1499 1500 1501 1502 1503 1504 1504 1505 1506 1506 1507 1507 1507 1507 1507 1508 1508 1509 1509 1509 1508 1508
1490 1491 1487 1480 1479 1481 1483 1484 1484 1485 1486 1488 1490 1490 1491 1493 1494 1494 1495 1495 1496 1496 1497 1497 1498 1499 1500 1501 1501 1502 1502 1503 1503 1503 1503 1503 1503 1504 1504 1505 1505 1505 1505 1505
1490 1494 1492 1479 1479 1482 1484 1486 1485 1485 1487 1488 1489 1486 1487 1491 1492 1492 1492 1492 1493 1493 1494 1494 1495 1496 1497 1498 1498 1498 1499 1499 1500 1500 1500 1500 1500 1500 1501 1501 1502 1502 1502 1501
1489 1489 1479 1480 1481 1483 1489 1486 1486 1486 1487 1488 1488 1489 1490 1490 1491 1491 1490 1489 1489 1490 1491 1491 1492 1492 1493 1494 1495 1495 1496 1496 1496 1497 1497 1497 1497 1497 1498 1499 1499 1499 1499 1498
1487 1489 1485 1483 1482 1484 1486 1487 1487 1488 1488 1488 1488 1488 1489 1489 1489 1488 1487 1487 1487 1487 1487 1488 1488 1489 1489 1490 1491 1491 1492 1493 1493 1494 1495 1494 1494 1494 1495 1496 1496 1495 1496 1495
1481 1483 1485 1486 1486 1488 1489 1489 1488 1488 1488 1488 1488 1487 1487 1487 1487 1486 1486 1486 1485 1485 1484 1485 1485 1486 1486 1486 1487 1488 1488 1489 1490 1491 1491 1491 1492 1492 1492 1493 1493 1493 1493 1493
1484 1482 1485 1487 1487 1488 1489 1489 1488 1488 1487 1486 1486 1485 1486 1485 1485 1484 1484 1484 1483 1483 1482 1482 1483 1483 1483 1484 1484 1485 1485 1486 1487 1487 1487 1488 1489 1489 1489 1490 1490 1490 1490 1490
1483 1484 1486 1486 1487 1488 1488 1487 1487 1486 1485 1485 1485 1484 1484 1483 1483 1482 1482 1482 1481 1481 1480 1480 1481 1481 1481 1481 1482 1482 1482 1483 1484 1484 1484 1484 1485 1486 1486 1486 1486 1486 1486 1486
1480 1483 1484 1485 1486 1486 1486 1486 1485 1485 1484 1484 1483 1482 1482 1481 1480 1480 1480 1479 1479 1479 1479 1479 1478 1478 1479 1479 1479 1479 1479 1480 1481 1482 1482 1482 1482 1482 1482 1482 1482 1482 1482 1482
1484 1484 1484 1484 1484 1484 1484 1484 1483 1483 1482 1481 1481 1480 1480 1479 1478 1478 1478 1478 1477 1477 1477 1477 1476 1476 1476 1476 1476 1477 1477 1478 1479 1479 1479 1479 1479 1480 1479 1479 1479 1479 1478 1478
1483 1483 1482 1482 1482 1482 1481 1481 1481 1480 1480 1479 1479 1478 1477 1477 1476 1476 1476 1476 1475 1475 1474 1474 1474 1474 1474 1474 1474 1474 1475 1476 1476 1476 1477 1477 1477 1477 1477 1477 1477 1476 1476 1476
1480 1480 1479 1479 1479 1479 1479 1479 1479 1478 1477 1477 1477 1476 1475 1474 1474 1474 1473 1473 1473 1472 1472 1472 1472 1471 1471 1471 1472 1472 1473 1474 1474 1474 1475 1475 1475 1476 1475 1475 1475 1475 1475 1474
1477 1477 1476 1476 1476 1476 1476 1476 1476 1476 1475 1475 1474 1473 1472 1472 1471 1471 1471 1470 1470 1470 1470 1469 1469 1469 1469 1469 1470 1470 1471 1471 1472 1472 1473 1473 1474 1474 1473 1473 1473 1473 1472 1472
1473 1473 1472 1473 1473 1473 1473 1474 1473 1473 1473 1472 1471 1471 1470 1469 1469 1468 1468 1468 1468 1468 1467 1467 1466 1466 1467 1467 1467 1468 1469 1469 1469 1470 1471 1471 1471 1472 1472 1471 1471 1471 1471 1471
1469 1469 1469 1469 1470 1470 1470 1470 1470 1470 1470 1469 1469 1468 1468 1467 1466 1466 1466 1466 1466 1465 1464 1464 1464 1464 1464 1465 1465 1466 1466 1467 1467 1468 1469 1469 1469 1469 1469 1469 1469 1469 1469 1468
1465 1465 1465 1466 1466 1466 1466 1467 1467 1467 1467 1467 1466 1466 1465 1465 1464 1464 1463 1463 1462 1462 1462 1462 1461 1462 1462 1462 1463 1464 1464 1464 1465 1466 1466 1466 1467 1467 1467 1467 1467 1467 1467 1467
1462 1462 1462 1462 1463 1463 1463 1463 1464 1464 1465 1465 1464 1463 1462 1462 1461 1461 1460 1460 1461 1460 1460 1460 1460 1460 1461 1461 1461 1462 1462 1463 1464 1464 1465 1465 1465 1465 1465 1465 1465 1464 1464 1464
1459 1459 1459 1459 1460 1460 1460 1460 1461 1461 1462 1462 1461 1460 1460 1460 1459 1459 1458 1458 1459 1458 1458 1458 1459 1459 1459 1459 1459 1460 1461 1461 1462 1462 1463 1463 1463 1463 1463 1463 1462 1462 1462 1462
1457 1456 1457 1457 1457 1457 1457 1458 1458 1459 1459 1459 1458 1458 1458 1457 1457 1457 1457 1457 1456 1456 1457 1457 1458 1458 1458 1458 1459 1459 1459 1460 1460 1460 1460 1460 1460 1460 1460 1460 1460 1460 1460 1459
1455 1455 1455 1455 1456 1456 1456 1456 1456 1457 1456 1457 1456 1456 1456 1456 1456 1455 1455 1455 1454 1454 1455 1456 1456 1456 1456 1457 1458 1458 1458 1458 1458 1458 1458 1458 1458 1458 1458 1458 1458 1457 1457 1457
1453 1453 1453 1453 1454 1454 1454 1454 1454 1454 1454 1455 1455 1455 1454 1454 1454 1454 1454 1454 1453 1454 1454 1454 1454 1455 1455 1456 1456 1457 1457 1457 1457 1457 1457 1457 1457 1456 1456 1456 1455 1455 1455 1454
1451 1451 1451 1451 1452 1451 1452 1452 1452 1452 1453 1453 1453 1454 1454 1454 1454 1454 1454 1454 1453 1454 1454 1454 1454 1454 1455 1455 1455 1456 1456 1456 1456 1456 1456 1456 1455 1455 1455 1454 1454 1453 1453 1453
1449 1449 1449 1450 1450 1449 1450 1450 1451 1451 1451 1452 1452 1452 1452 1453 1453 1453 1454 1454 1454 1454 1454 1454 1454 1454 1455 1455 1455 1455 1455 1455 1455 1455 1455 1455 1454 1454 1453 1453 1452 1451 1451 1451
1447 1447 1447 1448 1448 1448 1448 1449 1449 1449 1450 1451 1451 1452 1452 1453 1453 1453 1454 1454 1454 1454 1454 1454 1454 1455 1455 1455 1454 1454 1454 1454 1454 1454 1454 1453 1453 1452 1452 1451 1450 1450 1449 1448